Weather History for Flora, IL

Change the Weather History Date:

Friday, September 13, 2013

  Actual Average (KEVV) Record (KEVV)
Temperature  
Mean Temperature 64 °F 70 °F  
Max Temperature 74 °F 83 °F 99 °F (1939)
Min Temperature 55 °F 58 °F 40 °F (1940)
Degree Days  
Heating Degree Days 0 1  
Month to date heating degree days 3  
Since 1 July heating degree days 4  
Cooling Degree Days 0 6  
Month to date cooling degree days 102  
Year to date cooling degree days 1301  
Growing Degree Days 14 (Base 50)    
Moisture  
Dew Point 49 °F    
Average Humidity 63    
Maximum Humidity 94    
Minimum Humidity 34    
Precipitation  
Precipitation 0.00 in 0.11 in 1.35 in (1977)
Month to date precipitation 1.31  
Year to date precipitation 32.23  
Snow  
Snow 0.00 in 0.00 in 0.00 in ()
Month to date snowfall 0.0  
Since 1 July snowfall 0.0  
Since 1 September snowfall 0.0  
Snow Depth -    
Sea Level Pressure  
Sea Level Pressure 30.09 in    
Wind  
Wind Speed 6 mph (NNE)    
Max Wind Speed 12 mph    
Max Gust Speed 21 mph    
Visibility 10 miles    
Events      
T = Trace of Precipitation, MM = Missing Value Source: NWS Daily Summary

Daily Weather History Graph

Daily Weather History Graph

Search for Another Location

Airport:

Trip Planner

Search our weather history database for the weather conditions in past years. The results will help you decide how hot, cold, wet, or windy it might be!

Date:

Astronomy

Sep. 13, 2013 Rise Set
Actual Time 6:33 AM CDT 7:04 PM CDT
Civil Twilight 6:07 AM CDT 7:31 PM CDT
Nautical Twilight 5:35 AM CDT 8:02 PM CDT
Astronomical Twilight 5:03 AM CDT 8:34 PM CDT
Moon 2:51 PM CDT (9/13) 12:05 AM CDT (9/13)
Length of Visible Light 13h 24m
Length of Day
12h 31m
First Quarter, 61% of the Moon is Illuminated
Sep 13
First Quarter
Sep 19
Full
Sep 26
Last Quarter
Oct 4
New
Oct 11
First Quarter

Hourly Weather History & Observations

Time (CDT) Temp. Dew Point Humidity Pressure Visibility Wind Dir Wind Speed Gust Speed Precip Events Conditions
12:15 AM 63.5 °F 51.4 °F 65% 30.04 in 10.0 mi North 6.9 mph - N/A   Clear
12:35 AM 62.6 °F 51.8 °F 68% 30.04 in 10.0 mi North 5.8 mph - N/A   Clear
12:55 AM 61.7 °F 52.3 °F 71% 30.04 in 10.0 mi North 5.8 mph - N/A   Clear
1:15 AM 61.3 °F 52.9 °F 74% 30.04 in 10.0 mi North 4.6 mph - N/A   Clear
1:35 AM 60.1 °F 52.7 °F 77% 30.05 in 10.0 mi North 4.6 mph - N/A   Clear
1:55 AM 59.9 °F 52.9 °F 78% 30.06 in 10.0 mi NNW 4.6 mph - N/A   Clear
2:15 AM 59.2 °F 53.1 °F 80% 30.06 in 10.0 mi NNW 4.6 mph - N/A   Clear
2:35 AM 59.0 °F 52.9 °F 80% 30.06 in 10.0 mi NNW 4.6 mph - N/A   Clear
2:55 AM 58.1 °F 52.9 °F 83% 30.06 in 10.0 mi NNW 3.5 mph - N/A   Clear
3:15 AM 58.1 °F 53.6 °F 85% 30.05 in 10.0 mi North 4.6 mph - N/A   Clear
3:35 AM 58.1 °F 54.0 °F 86% 30.06 in 10.0 mi North 4.6 mph - N/A   Clear
3:55 AM 58.3 °F 54.1 °F 86% 30.06 in 10.0 mi North 4.6 mph - N/A   Clear
4:15 AM 58.1 °F 54.5 °F 88% 30.07 in 10.0 mi North 4.6 mph - N/A   Clear
4:35 AM 58.1 °F 54.5 °F 88% 30.07 in 10.0 mi North 5.8 mph - N/A   Clear
4:55 AM 57.9 °F 54.7 °F 89% 30.07 in 10.0 mi North 4.6 mph - N/A   Clear
5:15 AM 57.6 °F 54.9 °F 91% 30.08 in 10.0 mi North 4.6 mph - N/A   Clear
5:35 AM 57.2 °F 54.5 °F 91% 30.09 in 10.0 mi North 4.6 mph - N/A   Clear
5:55 AM 56.8 °F 54.7 °F 92% 30.09 in 10.0 mi North 4.6 mph - N/A   Clear
6:15 AM 56.5 °F 54.5 °F 93% 30.10 in 10.0 mi North 4.6 mph - N/A   Clear
6:35 AM 56.3 °F 54.5 °F 94% 30.10 in 10.0 mi North 4.6 mph - N/A   Clear
6:55 AM 56.3 °F 54.5 °F 94% 30.11 in 10.0 mi North 3.5 mph - N/A   Clear
7:15 AM 57.0 °F 54.7 °F 92% 30.11 in 10.0 mi North 3.5 mph - N/A   Clear
7:35 AM 58.1 °F 55.4 °F 91% 30.11 in 10.0 mi North 3.5 mph - N/A   Clear
7:55 AM 59.9 °F 54.9 °F 83% 30.11 in 10.0 mi NNE 5.8 mph - N/A   Clear
8:15 AM 61.7 °F 54.7 °F 78% 30.12 in 10.0 mi NNE 6.9 mph - N/A   Clear
8:35 AM 62.4 °F 53.2 °F 72% 30.12 in 10.0 mi NNE 10.4 mph - N/A   Clear
8:55 AM 63.9 °F 52.0 °F 65% 30.12 in 10.0 mi NE 10.4 mph - N/A   Clear
9:15 AM 64.8 °F 51.8 °F 63% 30.13 in 10.0 mi NE 10.4 mph - N/A   Clear
9:35 AM 65.8 °F 51.8 °F 60% 30.13 in 10.0 mi NE 8.1 mph - N/A   Clear
9:55 AM 67.1 °F 50.9 °F 56% 30.13 in 10.0 mi NNE 9.2 mph - N/A   Clear
10:15 AM 67.6 °F 50.0 °F 53% 30.13 in 10.0 mi ENE 11.5 mph - N/A   Clear
10:35 AM 68.2 °F 49.6 °F 51% 30.13 in 10.0 mi East 6.9 mph - N/A   Clear
10:55 AM 68.7 °F 49.3 °F 50% 30.13 in 10.0 mi NE 6.9 mph - N/A   Clear
11:15 AM 70.0 °F 49.5 °F 48% 30.13 in 10.0 mi NE 6.9 mph - N/A   Clear
11:35 AM 70.2 °F 49.3 °F 47% 30.12 in 10.0 mi NE 8.1 mph - N/A   Clear
11:55 AM 69.4 °F 49.6 °F 49% 30.12 in 10.0 mi North 6.9 mph - N/A   Clear
12:15 PM 69.3 °F 49.6 °F 50% 30.12 in 10.0 mi North 9.2 mph - N/A   Clear
12:35 PM 70.9 °F 49.1 °F 46% 30.11 in 10.0 mi North 9.2 mph - N/A   Clear
12:55 PM 69.8 °F 48.7 °F 47% 30.10 in 10.0 mi NNE 9.2 mph - N/A   Clear
1:15 PM 72.1 °F 48.9 °F 44% 30.10 in 10.0 mi NNE 9.2 mph - N/A   Clear
1:35 PM 71.6 °F 47.1 °F 42% 30.09 in 10.0 mi North 8.1 mph - N/A   Clear
1:55 PM 73.9 °F 45.0 °F 35% 30.09 in 10.0 mi North 10.4 mph 16.1 mph N/A   Clear
2:15 PM 73.0 °F 46.6 °F 39% 30.08 in 10.0 mi North 11.5 mph 18.4 mph N/A   Clear
2:35 PM 73.9 °F 45.0 °F 35% 30.07 in 10.0 mi North 5.8 mph 10.4 mph N/A   Clear
2:55 PM 73.9 °F 45.0 °F 35% 30.07 in 10.0 mi NNE 10.4 mph - N/A   Clear
3:15 PM 73.2 °F 44.4 °F 36% 30.07 in 10.0 mi North 11.5 mph 20.7 mph N/A   Clear
3:35 PM 73.2 °F 44.1 °F 35% 30.07 in 10.0 mi North 11.5 mph - N/A   Clear
3:55 PM 73.2 °F 43.9 °F 35% 30.06 in 10.0 mi NNE 10.4 mph 18.4 mph N/A   Clear
4:15 PM 73.2 °F 43.9 °F 35% 30.07 in 10.0 mi North 11.5 mph 16.1 mph N/A   Clear
4:35 PM 73.0 °F 43.3 °F 34% 30.07 in 10.0 mi North 10.4 mph 17.3 mph N/A   Clear
4:55 PM 72.0 °F 43.2 °F 35% 30.07 in 10.0 mi North 6.9 mph 16.1 mph N/A   Clear
5:15 PM 72.1 °F 43.0 °F 35% 30.07 in 10.0 mi NNE 10.4 mph - N/A   Clear
5:35 PM 72.1 °F 43.2 °F 35% 30.07 in 10.0 mi NNE 6.9 mph - N/A   Clear
5:55 PM 70.7 °F 43.9 °F 38% 30.07 in 10.0 mi NNE 8.1 mph - N/A   Clear
6:15 PM 69.8 °F 43.7 °F 39% 30.07 in 10.0 mi NE 5.8 mph - N/A   Clear
6:35 PM 68.7 °F 44.6 °F 42% 30.07 in 10.0 mi North 8.1 mph - N/A   Clear
6:55 PM 66.9 °F 45.9 °F 47% 30.07 in 10.0 mi NNE 4.6 mph - N/A   Clear
7:15 PM 64.6 °F 46.8 °F 52% 30.07 in 10.0 mi NNE 4.6 mph - N/A   Clear
7:35 PM 62.6 °F 46.8 °F 56% 30.08 in 10.0 mi NNE 4.6 mph - N/A   Clear
7:55 PM 61.7 °F 47.3 °F 59% 30.08 in 10.0 mi NNE 4.6 mph - N/A   Clear
8:15 PM 60.8 °F 47.3 °F 61% 30.09 in 10.0 mi NNE 3.5 mph - N/A   Clear
8:35 PM 59.0 °F 47.3 °F 65% 30.09 in 10.0 mi NNE 3.5 mph - N/A   Clear
8:55 PM 58.8 °F 47.3 °F 66% 30.10 in 10.0 mi NNE 3.5 mph - N/A   Clear
9:15 PM 58.6 °F 47.3 °F 66% 30.10 in 10.0 mi NNE 4.6 mph - N/A   Clear
9:35 PM 57.4 °F 47.3 °F 69% 30.10 in 10.0 mi NNE 3.5 mph - N/A   Clear
9:55 PM 56.5 °F 47.7 °F 72% 30.10 in 10.0 mi North 4.6 mph - N/A   Clear
10:15 PM 56.8 °F 47.7 °F 71% 30.11 in 10.0 mi NNE 5.8 mph - N/A   Clear
10:35 PM 57.7 °F 46.9 °F 67% 30.11 in 10.0 mi NE 5.8 mph - N/A   Clear
10:55 PM 57.6 °F 46.4 °F 66% 30.11 in 10.0 mi NE 6.9 mph - N/A   Clear
11:15 PM 57.2 °F 46.4 °F 67% 30.12 in 10.0 mi NE 8.1 mph - N/A   Clear
11:35 PM 56.3 °F 46.2 °F 69% 30.12 in 10.0 mi NE 5.8 mph - N/A   Clear
11:55 PM 55.8 °F 45.9 °F 69% 30.12 in 10.0 mi NNE 3.5 mph - N/A   Clear